カタログに戻る

YZ-1 R/B

運用中MEO
NORAD 61185·ROCKET BODY·🇨🇳 China

打ち上げ Sep 19, 2024 から Xichang Satellite Launch Center

Loading…

次のパス (今後24時間)

TLE

最新Source: Space-Track

元期: Sep 14, 2026, 08:33 UTC

1 61185U 24168A   26257.35659536 -.00000067  00000-0  00000-0 0  9990
2 61185  54.3037 300.7893 0076870 310.0490  49.3420  1.80096015 13073

AllMySatでYZ-1 R/Bをリアルタイム追跡

Download on the App Store